Préparation du vol

Réserver un ULM chez EFU                     Découvrir nos appareils                     Coordonnées de l'école

Available data for LFPN from the past hour

METAR
LFPN 190900Z AUTO 22011KT 190V260 9999 BKN019 BKN027 BKN032 22/15 Q1020 NOSIG
TAF
TAF LFPN 190800Z 1909/1918 22005KT CAVOK

Pour avoir des informations détaillée sur la météo à venir vous pouvez consulter Aeroweb

prevision des pluies

Nota : Heuro locale = heure CET

ATISATIS Étampes129.900
SOLÉtampes sol121.850
TWRÉtampes tour119.050
VDFÉtampes gonio119.050

OLIVIA

Outil en Ligne Intégré de Visualisation d'Informations Aéronautiques

OLIVIA